Location: Unspecified
(44.0704°N, 88.6889°W)
Time: 22:06:37
(UTC+02:00)

Altair - Pass Details

Date: 17 June 2019
Orbit: 1501 x 1683 km, 47.2° (Epoch: 20 July)

Event Time Altitude Azimuth Distance (km) Brightness Sun altitude
Rises 04:48:56 0° 226° (SW) 4,714 10.0 -10.2°
Reaches altitude 10° 04:51:59 10° 223° (SW) 3,755 9.5 -10.6°
Maximum altitude 05:01:20 61° 145° (SE) 1,789 7.6 -11.7°
Drops below altitude 10° 05:11:05 10° 69° (ENE) 3,905 9.5 -12.8°
Sets 05:14:19 0° 66° (ENE) 4,911 10.0 -13.1°
